COSMOS 2251 DEB, 35038

Orbit data source: Space-Track

COSMOS 2251 DEB, 35038 is space debris in LEO originally from a launch on Wed, 16 Jun 1993 UTC launched from the Plesetsk Missile And Space Complex (PKMTR). The debris from Iridium 33, an American commercial communications satellite, has been tracked extensively since its accidental collision with the defunct Russian satellite Cosmos 2251 in 2009. This event, occurring at high speed in low Earth orbit (LEO), generated thousands of pieces of space debris, significantly increasing the risk of further collisions. The Iridium 33 debris cloud has impacted space traffic management and orbital debris mitigation strategies, making it a subject of ongoing study in space situational awareness.

Loading next visibility...
Identifier
35038, 1993-036AHB
Orbit
LEO
Country
Flag of CISCIS
Related business
Manufacturer
Unknown
Mission
Spacecraft
Bus & Motor
Unknown
Mass
Unknown
Launch date (UTC)
1993-06-16 (32 years ago)
Launch vehicle
Unknown
Launch site
Plesetsk Missile And Space Complex (PKMTR)
Object type
Payload
Rocket body
Debris
Shape & HBR
Unknown shape, 0.1 m
Radar Cross Section
Small (<0.1 m²)

Expand to show TLE details & history
Last TLE update: 2 days ago

TLE from 2 days ago
0 COSMOS 2251 DEB
1 35038U 93036AHB 25303.94291463  .00002009  00000-0  81465-3 0  9999
2 35038  74.1082 119.4399 0115262 115.7860  35.4659 14.24723953849591
Epoch: 2025-10-30T22:37Z
TLE epoch observation values (Epoch: 2025-10-30T22:37:47.824Z)
Latitude
26.86057°
Longitude
-87.74956°
Altitude
745.22 km
Speed
7.52 km/s
True Right ascension
19h 24m 46s
True Declination
26° 43' 19"
Sunlit
Object was in daylight at epoch
Visualization orbit readout
Latitude
Unknown
Longitude
Unknown
Altitude
Unknown
Speed
Unknown
Apparent Right ascension
Unknown
Apparent Declination
Unknown
Sunlit
N/A
Visualization observer readout
Local Sidereal Time
20:28:15
Azimuth
Unknown
Elevation
Unknown
Doppler factor
Unknown
Orbital elements
Apogee altitude
889.869 km
Perigee altitude
724.233 km
Semi-major axis
7,185.188 km
Eccentricity
0.01153
Inclination
74.1082°
RAAN
119.4399°
Arg. of periapsis
115.786°
True anomaly
36.24133°
Mean anomaly
35.4659°
Eccentric anomaly
35.8527°
Mean motion
3.56358 °/min
Orbital period
101.02 mins
BSTAR
0.00081465

Documentation

Showing up to 5 results
|